Location: Hopewell Observatory
(38.8698°N, 77.6988°W)
Time: 12:36:51
(UTC-05:00)

Daily predictions for brighter satellites

Satellite Brightness Start Highest point End
(mag) Time Altitude Azimuth Time Altitude Azimuth Time Altitude Azimuth
NOSS 3-1 (A) 4.2 17:05:59 10° NW 17:13:44 88° WSW 17:22:08 10° SSE
Cosmos 1455 Rocket 4.4 17:12:16 10° NNE 17:15:31 20° ENE 17:18:46 10° ESE
Cosmos 1125 Rocket 3.9 17:16:22 10° SSW 17:21:38 68° WNW 17:26:58 10° NNE
Cosmos 2341 Rocket 4.0 17:17:56 10° N 17:24:11 84° E 17:30:23 10° S
ATLAS 2AS CENTAUR R/B 3.4 17:18:04 10° NNW 17:25:42 42° NE 17:32:52 10° ESE
Thor Agena Rocket 3.6 17:20:34 10° NNE 17:25:44 65° ESE 17:30:57 10° S
Cosmos 1269 Rocket 4.3 17:23:32 10° NNW 17:28:52 79° WSW 17:34:09 10° SSE
Hubble Space Telescope 3.5 17:33:46 10° SW 17:35:56 14° SSW 17:38:06 10° SSE
Cosmos 1536 3.2 17:32:23 10° NNW 17:36:27 71° W 17:40:29 10° S
Cosmos 2263 Rocket 4.2 17:34:00 10° WSW 17:38:28 24° NW 17:43:00 10° N
Cosmos 2251 Rocket 4.0 17:34:44 10° N 17:39:45 39° ENE 17:44:41 10° SE
ISS -2.7 17:43:22 10° WSW 17:46:35 50° NW 17:49:07 15° NE
MSX 3.8 17:46:28 10° SSE 17:52:09 67° ENE 17:57:52 10° N
SL-27 R/B 2.5 17:52:01 10° N 17:55:39 59° ENE 17:59:13 10° SSE
Cosmos 1812 2.7 17:52:00 10° S 17:55:46 57° E 17:59:34 10° NNE
Cosmos 1346 Rocket 3.8 17:52:49 10° SE 17:56:00 24° E 17:57:08 21° ENE
CZ-4 R/B 2.8 17:56:05 10° S 18:00:04 43° W 18:04:04 10° NNW
Cosmos 864 Rocket 4.5 17:54:26 10° N 18:00:41 67° E 18:06:57 10° SSE
Tiangong 1 3.2 18:00:18 10° S 18:01:55 14° SE 18:02:26 13° SE
COSMO-SKYMED 1 2.7 17:58:16 10° NNE 18:02:32 53° E 18:06:46 10° S
Cosmos 1544 Rocket 3.5 17:59:20 10° N 18:03:48 88° ENE 18:08:16 10° S
Cosmos 1844 Rocket 3.1 17:58:54 10° SSW 18:04:25 65° WNW 18:10:02 10° NNE
GEOS 3 Rocket 3.7 18:01:02 10° ESE 18:05:57 50° NE 18:10:54 10° NNW
CZ-2C R/B 3.2 18:01:54 10° S 18:06:43 56° W 18:11:43 10° NNW
Cosmos 1238 Rocket 2.4 18:07:55 10° SSW 18:10:53 67° W 18:13:47 10° N
MONITOR-E 4.2 18:08:07 10° S 18:11:19 85° W 18:14:32 10° NNW
Meteor 1-12 Rocket 4.2 18:07:04 10° N 18:12:51 72° E 18:18:41 10° SSE
Cosmos 1844 3.9 18:09:07 10° SSW 18:14:40 72° WNW 18:20:14 10° NNE
Cosmos 2297 4.4 18:10:58 10° SSE 18:15:53 32° ESE 18:17:28 27° ENE
CZ-3A R/B 4.2 18:11:03 10° W 18:16:21 46° N 18:35:18 16° NE
OPS 8737 4.5 18:14:14 10° SW 18:17:37 67° NW 18:18:56 31° NNE
Cosmos 1975 2.8 18:13:36 10° N 18:17:39 61° E 18:21:38 10° SSE
BREEZE-M DEB (TANK) 3.9 18:17:10 10° NW 18:18:33 15° NNW 18:18:35 15° N
Cosmos 1536 Rocket 3.6 18:17:31 10° S 18:21:58 84° W 18:26:28 10° N
SL-24 DEB 4.5 18:23:15 10° N 18:28:00 73° W 18:32:40 10° SSW
Cosmos 2278 Rocket 2.2 18:26:43 10° SSW 18:32:22 85° WNW 18:36:35 19° NNE
Meteor 2-21 Rocket 4.4 18:31:15 10° N 18:37:24 61° E 18:43:27 10° SSE
Meteor 1-13 Rocket 4.1 18:36:47 10° S 18:42:21 67° E 18:46:05 22° NNE
Meteor 2-16 Rocket 4.4 18:37:09 10° N 18:43:07 54° E 18:49:03 10° SSE
Cosmos 1484 Rocket 4.0 18:42:11 10° S 18:45:45 40° W 18:49:18 10° NNW
Okean 1-7 Rocket 3.5 18:42:23 10° S 18:46:43 64° ESE 18:46:43 64° ESE
OTV 4 2.6 18:47:25 10° WSW 18:49:39 22° SSW 18:49:39 22° SSW
Cosmos 921 Rocket 4.0 18:46:00 10° S 18:48:30 33° SSE 18:48:30 33° SSE
CZ-3B DEB 3.2 18:46:08 10° WSW 18:50:16 47° NNW 18:55:16 24° NE
Cosmos 1535 Rocket 4.4 18:48:32 10° N 18:54:47 59° E 19:00:55 10° SSE
Timation 2 Rocket 4.1 18:50:39 10° NNW 18:57:25 61° ENE 18:59:44 41° ESE
Cosmos 2082 Rocket 2.7 18:53:32 10° NNW 18:57:45 43° NNE 18:57:45 43° NNE
Cosmos 1833 Rocket 3.7 18:59:36 10° NNW 19:02:46 31° N 19:02:46 31° N
NOSS 3-3 (A) 4.5 19:00:35 10° SW 19:06:40 58° NW 19:09:41 31° NNE
NOSS 3-3 (C) 4.4 19:00:41 10° SW 19:06:45 58° NW 19:09:45 32° NNE
SL-8 R/B 4.1 19:04:30 10° WSW 19:09:02 56° NW 19:09:02 56° NW
Cosmos 2239 Rocket 4.3 19:06:47 10° N 19:13:01 85° E 19:19:11 10° S
METEOR-M 4.3 19:10:18 10° S 19:15:37 70° WSW 19:20:58 10° NNW
ATLAS 2AS CENTAUR R/B 3.9 19:09:15 10° NW 19:16:49 47° WSW 19:23:50 10° S
Meteor 2-4 Rocket 4.3 19:14:25 10° S 19:18:00 43° S 19:18:00 43° S
Cosmos 1821 Rocket 3.8 19:15:16 10° N 19:21:23 87° W 19:27:28 10° S
ATLAS 3B CENTAUR R/B 3.9 19:49:15 10° WSW 20:00:10 36° SSW 20:00:10 36° SSW
FALCON 9 R/B 3.9 20:16:55 10° W 20:26:28 42° WSW 20:26:28 42° WSW
